Time,TemperatureF,DewpointF,PressureIn,WindDirection,WindDirectionDegrees,WindSpeedMPH,WindSpeedGustMPH,Humidity,HourlyPrecipIn,Conditions,Clouds,dailyrainin,SoftwareType,DateUTC
2013-03-05 00:12:00,33.0,23.0,-100.00,East,85,2.0,14.0,65,-99.99,,,-99.99,,2013-03-05 05:12:00,
2013-03-05 00:22:00,33.0,23.0,-100.00,East,85,2.0,14.0,65,-99.99,,,-99.99,,2013-03-05 05:22:00,
2013-03-05 00:32:00,33.0,22.0,-100.00,East,90,6.0,16.0,65,-99.99,,,-99.99,,2013-03-05 05:32:00,
2013-03-05 00:42:00,33.0,22.0,-100.00,ENE,75,3.0,17.0,65,-99.99,,,-99.99,,2013-03-05 05:42:00,
2013-03-05 00:52:00,32.0,22.0,-100.00,East,90,3.0,12.0,65,-99.99,,,-99.99,,2013-03-05 05:52:00,
2013-03-05 01:02:00,32.0,22.0,-100.00,ESE,105,3.0,12.0,66,-99.99,,,-99.99,,2013-03-05 06:02:00,
2013-03-05 01:11:00,33.0,22.0,-100.00,East,80,6.0,13.0,65,-99.99,,,-99.99,,2013-03-05 06:11:00,
2013-03-05 01:22:00,33.0,22.0,-100.00,East,80,6.0,15.0,65,-99.99,,,-99.99,,2013-03-05 06:22:00,
2013-03-05 01:32:00,33.0,22.0,-100.00,East,95,5.0,13.0,65,-99.99,,,-99.99,,2013-03-05 06:32:00,
2013-03-05 01:42:00,33.0,22.0,-100.00,ENE,65,3.0,13.0,64,-99.99,,,-99.99,,2013-03-05 06:42:00,
2013-03-05 01:52:00,33.0,22.0,-100.00,ESE,105,5.0,17.0,64,-99.99,,,-99.99,,2013-03-05 06:52:00,
2013-03-05 02:01:00,33.0,22.0,-100.00,East,100,5.0,13.0,64,-99.99,,,-99.99,,2013-03-05 07:01:00,
2013-03-05 02:11:00,33.0,22.0,-100.00,East,95,6.0,20.0,64,-99.99,,,-99.99,,2013-03-05 07:11:00,
2013-03-05 02:22:00,33.0,22.0,-100.00,East,90,5.0,14.0,64,-99.99,,,-99.99,,2013-03-05 07:22:00,
2013-03-05 02:30:00,33.0,22.0,-100.00,East,100,3.0,9.0,64,-99.99,,,-99.99,,2013-03-05 07:30:00,
2013-03-05 02:32:00,33.0,22.0,-100.00,East,90,5.0,13.0,64,-99.99,,,-99.99,,2013-03-05 07:32:00,
2013-03-05 02:42:00,33.0,22.0,-100.00,East,90,1.0,13.0,64,-99.99,,,-99.99,,2013-03-05 07:42:00,
2013-03-05 02:51:00,33.0,21.0,-100.00,ENE,65,5.0,15.0,63,-99.99,,,-99.99,,2013-03-05 07:51:00,
2013-03-05 03:02:00,33.0,22.0,-100.00,East,90,2.0,12.0,64,-99.99,,,-99.99,,2013-03-05 08:02:00,
2013-03-05 03:11:00,33.0,22.0,-100.00,East,100,3.0,9.0,64,-99.99,,,-99.99,,2013-03-05 08:11:00,
2013-03-05 03:21:00,33.0,22.0,-100.00,East,100,3.0,9.0,64,-99.99,,,-99.99,,2013-03-05 08:21:00,
2013-03-05 03:42:00,33.0,22.0,-100.00,East,90,3.0,8.0,64,-99.99,,,-99.99,,2013-03-05 08:42:00,
2013-03-05 03:52:00,33.0,22.0,-100.00,ENE,75,5.0,12.0,64,-99.99,,,-99.99,,2013-03-05 08:52:00,
2013-03-05 04:02:00,33.0,22.0,-100.00,East,90,5.0,14.0,64,-99.99,,,-99.99,,2013-03-05 09:02:00,
2013-03-05 04:10:00,32.0,22.0,-100.00,ENE,70,7.0,15.0,66,-99.99,,,-99.99,,2013-03-05 09:10:00,
2013-03-05 04:11:00,33.0,22.0,-100.00,ENE,75,8.0,14.0,64,-99.99,,,-99.99,,2013-03-05 09:11:00,
2013-03-05 04:21:00,33.0,22.0,-100.00,East,85,8.0,15.0,64,-99.99,,,-99.99,,2013-03-05 09:21:00,
2013-03-05 04:32:00,32.0,22.0,-100.00,East,85,3.0,12.0,65,-99.99,,,-99.99,,2013-03-05 09:32:00,
2013-03-05 04:43:00,32.0,22.0,-100.00,ENE,75,5.0,10.0,66,-99.99,,,-99.99,,2013-03-05 09:43:00,
2013-03-05 04:52:00,32.0,22.0,-100.00,ENE,70,7.0,15.0,66,-99.99,,,-99.99,,2013-03-05 09:52:00,
2013-03-05 05:02:00,32.0,22.0,-100.00,ENE,70,7.0,15.0,66,-99.99,,,-99.99,,2013-03-05 10:02:00,
2013-03-05 05:42:00,32.0,22.0,-100.00,ENE,70,3.0,10.0,65,-99.99,,,-99.99,,2013-03-05 10:42:00,
2013-03-05 05:52:00,32.0,22.0,-100.00,ENE,70,3.0,10.0,65,-99.99,,,-99.99,,2013-03-05 10:52:00,
2013-03-05 06:02:00,33.0,22.0,-100.00,East,85,5.0,13.0,65,-99.99,,,-99.99,,2013-03-05 11:02:00,
2013-03-05 06:11:00,33.0,22.0,-100.00,ENE,60,3.0,9.0,65,-99.99,,,-99.99,,2013-03-05 11:11:00,
2013-03-05 06:22:00,33.0,22.0,-100.00,ENE,60,2.0,8.0,65,-99.99,,,-99.99,,2013-03-05 11:22:00,
2013-03-05 06:32:00,33.0,22.0,-100.00,NE,50,2.0,14.0,65,-99.99,,,-99.99,,2013-03-05 11:32:00,
2013-03-05 06:42:00,33.0,22.0,-100.00,South,180,1.0,7.0,65,-99.99,,,-99.99,,2013-03-05 11:42:00,
2013-03-05 06:52:00,33.0,22.0,-100.00,SSE,160,3.0,10.0,65,-99.99,,,-99.99,,2013-03-05 11:52:00,
2013-03-05 07:02:00,33.0,22.0,-100.00,East,80,1.0,13.0,65,-99.99,,,-99.99,,2013-03-05 12:02:00,
2013-03-05 07:32:00,33.0,22.0,-100.00,ESE,110,1.0,13.0,65,-99.99,,,-99.99,,2013-03-05 12:32:00,
2013-03-05 07:42:00,33.0,23.0,-100.00,NNE,15,1.0,13.0,65,-99.99,,,-99.99,,2013-03-05 12:42:00,
2013-03-05 07:52:00,34.0,23.0,-100.00,SE,140,1.0,9.0,64,-99.99,,,-99.99,,2013-03-05 12:52:00,
2013-03-05 08:02:00,34.0,23.0,-100.00,East,85,1.0,9.0,64,-99.99,,,-99.99,,2013-03-05 13:02:00,
2013-03-05 08:12:00,35.0,23.0,-100.00,NW,315,1.0,7.0,61,-99.99,,,-99.99,,2013-03-05 13:12:00,
2013-03-05 08:22:00,34.0,23.0,-100.00,SE,135,2.0,8.0,62,-99.99,,,-99.99,,2013-03-05 13:22:00,
2013-03-05 08:32:00,36.0,23.0,-100.00,SE,130,2.0,7.0,58,-99.99,,,-99.99,,2013-03-05 13:32:00,
2013-03-05 08:42:00,36.0,23.0,-100.00,SE,130,2.0,7.0,58,-99.99,,,-99.99,,2013-03-05 13:42:00,
2013-03-05 08:52:00,36.0,23.0,-100.00,ESE,120,2.0,10.0,59,-99.99,,,-99.99,,2013-03-05 13:52:00,
2013-03-05 09:02:00,37.0,23.0,-100.00,East,80,2.0,9.0,58,-99.99,,,-99.99,,2013-03-05 14:02:00,
2013-03-05 09:11:00,37.0,24.0,-100.00,ENE,70,3.0,8.0,58,-99.99,,,-99.99,,2013-03-05 14:11:00,
2013-03-05 09:22:00,37.0,23.0,-100.00,SE,145,3.0,8.0,57,-99.99,,,-99.99,,2013-03-05 14:22:00,
2013-03-05 09:32:00,38.0,24.0,-100.00,ESE,115,2.0,8.0,57,-99.99,,,-99.99,,2013-03-05 14:32:00,
2013-03-05 09:42:00,39.0,25.0,-100.00,SSE,165,2.0,10.0,56,-99.99,,,-99.99,,2013-03-05 14:42:00,
2013-03-05 09:52:00,39.0,24.0,-100.00,NE,55,2.0,8.0,56,-99.99,,,-99.99,,2013-03-05 14:52:00,
2013-03-05 10:02:00,38.0,25.0,-100.00,NE,45,2.0,9.0,57,-99.99,,,-99.99,,2013-03-05 15:02:00,
2013-03-05 10:10:00,41.0,26.0,-100.00,ESE,110,3.0,9.0,55,-99.99,,,-99.99,,2013-03-05 15:10:00,
2013-03-05 10:11:00,40.0,25.0,-100.00,ENE,70,3.0,10.0,55,-99.99,,,-99.99,,2013-03-05 15:11:00,
2013-03-05 10:22:00,41.0,25.0,-100.00,East,90,2.0,13.0,53,-99.99,,,-99.99,,2013-03-05 15:22:00,
2013-03-05 10:32:00,41.0,26.0,-100.00,SSE,165,2.0,10.0,53,-99.99,,,-99.99,,2013-03-05 15:32:00,
2013-03-05 10:42:00,41.0,25.0,-100.00,ESE,115,2.0,9.0,54,-99.99,,,-99.99,,2013-03-05 15:42:00,
2013-03-05 10:52:00,41.0,26.0,-100.00,ESE,110,3.0,9.0,55,-99.99,,,-99.99,,2013-03-05 15:52:00,
2013-03-05 11:02:00,41.0,26.0,-100.00,ESE,110,3.0,9.0,55,-99.99,,,-99.99,,2013-03-05 16:02:00,
2013-03-05 14:22:00,45.0,27.0,-100.00,SE,125,2.0,8.0,49,-99.99,,,-99.99,,2013-03-05 19:22:00,
2013-03-05 14:32:00,46.0,27.0,-100.00,SE,145,2.0,8.0,48,-99.99,,,-99.99,,2013-03-05 19:32:00,
2013-03-05 15:32:00,46.0,28.0,-100.00,SSE,150,2.0,8.0,49,-99.99,,,-99.99,,2013-03-05 20:32:00,
2013-03-05 19:02:00,38.0,30.0,-100.00,WNW,285,0.0,2.0,75,-99.99,,,-99.99,,2013-03-06 00:02:00,